Location: Étouvelles
(49.5207°N, 3.5808°E)
Time: 23:47:11
(UTC+00:00)

Cosmos 540 Rocket - Pass Details

Date: 23 September 2023
Orbit: 737 x 752 km, 74.1° (Epoch: 03 December)

Event Time Altitude Azimuth Distance (km) Brightness Sun altitude
Rises 20:54:46 0° 342° (NNW) 3,184 7.5 -29.6°
Reaches altitude 10° 20:57:34 10° 357° (N) 2,257 6.4 -30.0°
Enters shadow 21:00:14 21° 26° (NNE) 1,627 5.3 -30.3°
